Starlink 32106

operational
NORAD ID: 59690 Int'l Des: 2024-086 Owner: SPXS Country: US Constellation: starlink
LEOCIRCULAR

关于 Starlink 32106

正在加载描述...

实时位置

正在加载3D地球...

即将过境

高度历史

Altitude vs Time

uPlot chart will show altitude changes over time

两行轨道根数

1 59690U 24086J 25350.79939881 .00002945 00000-0 11649-3 0 9992
2 59690 43.0030 160.3685 0001336 253.6890 106.3815 15.27580014 91520
Epoch: Dec 16, 2025 • Age: 13 hours

当前状态

高度 483.1 km
速度 7.63 km/s
星下点 -0.87°S, 45.72°W
发射日期 May 8, 2024
运行时间 1.6 years
类型 internet

技术详情

分类 Payload
质量 730.00 kg
干质量 700.00 kg
总质量 730.00 kg
长度 0.30 m
直径 4.10 m
跨度 29.00 m
形状 Box + pan
制造商 SPXS
平台类型 Starlink V2M
阶段状态 In Orbit
所有者/国家 SPXS/US

大型星座

Loading constellations...